AKDT,Max TemperatureF,Mean TemperatureF,Min TemperatureF,Max Dew PointF,MeanDew PointF,Min DewpointF,Max Humidity, Mean Humidity, Min Humidity, Max Sea Level PressureIn, Mean Sea Level PressureIn, Min Sea Level PressureIn, Max VisibilityMiles, Mean VisibilityMiles, Min VisibilityMiles, Max Wind SpeedMPH, Mean Wind SpeedMPH, Max Gust SpeedMPH,PrecipitationIn, CloudCover, Events, WindDirDegrees
2013-4-1,44,38,33,39,35,30,93,83,70,30.09,29.99,29.95,10,10,10,14,3,18,0.12,7,,215
2013-4-2,44,36,28,34,31,27,93,82,57,30.31,30.23,30.10,10,10,10,9,4,,0.01,5,,223
2013-4-3,42,36,30,34,29,27,93,77,53,30.31,30.21,30.07,10,9,1,7,2,,0.00,4,,104
2013-4-4,46,37,28,28,24,19,93,62,34,30.06,29.83,29.62,10,10,10,9,4,,0.00,0,,111
2013-4-5,37,34,32,32,28,23,93,78,60,29.61,29.57,29.51,10,7,2,7,4,,0.15,7,,184
2013-4-6,48,42,35,41,35,32,93,83,66,29.77,29.55,29.44,10,10,8,10,2,23,0.11,7,,61
2013-4-7,53,44,33,37,35,30,93,77,44,30.00,29.91,29.77,10,10,10,7,2,,0.00,3,,78
2013-4-8,51,40,28,37,32,27,93,75,41,30.00,29.89,29.68,10,9,0,17,3,30,0.24,5,,148
2013-4-9,44,40,35,39,35,25,87,77,56,29.85,29.57,29.31,10,8,4,22,9,43,0.97,8,Rain,150
2013-4-10,42,36,30,30,28,21,93,74,42,30.15,29.99,29.85,10,10,10,16,4,16,0.01,6,Rain-Snow,221
2013-4-11,41,36,30,30,28,25,87,72,53,30.25,30.14,29.84,10,9,2,14,6,17,0.02,7,,149
2013-4-12,46,40,35,30,27,21,75,60,37,29.82,29.59,29.50,10,10,3,13,7,26,0.02,6,,99
2013-4-13,48,38,28,34,28,25,93,68,40,30.07,29.95,29.76,10,10,10,8,4,,0.00,1,,132
2013-4-14,50,39,28,30,28,25,93,65,40,30.26,30.15,30.07,10,10,10,8,4,,0.00,1,,105
2013-4-15,48,39,30,34,28,25,86,64,46,30.40,30.35,30.26,10,10,10,9,4,,0.00,1,,104
2013-4-16,46,40,35,36,32,28,87,75,50,30.41,30.31,30.12,10,10,7,12,3,17,0.09,7,,258
2013-4-17,48,42,35,43,37,34,93,86,76,30.14,30.09,30.04,10,8,3,9,2,,0.32,7,Rain,122
2013-4-18,46,40,35,39,36,32,93,85,71,30.14,30.01,29.92,10,9,3,10,3,16,0.09,8,,191
2013-4-19,44,38,30,36,24,16,87,59,34,30.27,30.11,29.95,10,10,10,15,7,20,0.00,4,,266
2013-4-20,46,36,26,27,21,14,86,55,29,30.44,30.37,30.27,10,10,10,9,5,,0.00,0,,96
2013-4-21,48,37,26,28,21,18,80,53,32,30.56,30.50,30.44,10,10,10,8,4,,0.00,0,,89
2013-4-22,44,36,28,30,27,21,93,63,43,30.63,30.60,30.56,10,10,10,12,4,16,0.00,6,,32
2013-4-23,48,38,28,34,29,25,86,66,46,30.65,30.58,30.46,10,10,10,8,4,,0.00,2,,70
2013-4-24,46,42,39,43,38,34,93,83,70,30.46,30.18,29.88,10,6,2,12,3,16,0.17,8,,184
2013-4-25,46,44,41,41,39,37,87,81,76,29.87,29.70,29.58,10,7,3,12,5,20,1.03,8,Rain,142
2013-4-26,44,40,37,39,35,30,93,82,75,29.58,29.53,29.49,10,5,2,16,5,32,2.15,8,,165
2013-4-27,42,38,33,36,33,30,93,83,66,29.85,29.73,29.53,10,8,5,9,3,20,0.51,7,Rain,106
2013-4-28,41,37,33,36,31,27,93,84,70,29.81,29.68,29.62,10,7,2,12,3,16,0.65,8,,227
2013-4-29,41,36,30,28,23,14,86,61,36,30.27,30.08,29.82,10,9,3,13,8,20,0.04,5,,272
2013-4-30,42,34,26,34,26,21,93,73,49,30.34,30.32,30.28,10,9,5,13,4,16,0.02,4,,180